Orbital Elements at Epoch 2459200.5 (2020-Dec-17.0) TDB
Reference: JPL 26 (heliocentric ecliptic J2000)
Element | Value | Uncertainty (1-sigma) | Units |
e | .09886522622353137 | 4.4968e-08 | |
a | 2.514699014934116 | 1.4305e-08 | au |
q | 2.266082727938563 | 1.1062e-07 | au |
i | 13.61880808948052 | 5.0138e-06 | deg |
node | 45.95790733557794 | 1.6993e-05 | deg |
peri | 200.1274684780061 | 3.2133e-05 | deg |
M | 169.0464988630461 | 3.0873e-05 | deg |
tp | 2458516.539337844764 (2019-Feb-02.03933784) | 0.00012365 | TDB |
period | 1456.556864720198 3.99 | 1.2429e-05 3.403e-08 | d yr |
n | .2471582186179565 | 2.109e-09 | deg/d |
Q | 2.763315301929668 | 1.572e-08 | au |
|
| | Orbit Determination Parameters
Additional Information
|